TimeEDT,TemperatureF,Dew PointF,Humidity,Sea Level PressureIn,VisibilityMPH,Wind Direction,Wind SpeedMPH,Gust SpeedMPH,PrecipitationIn,Events,Conditions,WindDirDegrees,DateUTC
12:15 AM,19.4,15.8,86,29.97,0.8,WNW,15.0,33.4,0.00,Snow,Light Snow,290,2013-03-14 04:15:00
12:18 AM,19.4,17.6,93,29.97,1.0,WNW,17.3,33.4,0.00,Snow,Light Snow,290,2013-03-14 04:18:00
12:28 AM,19.4,15.8,86,29.97,3.0,WNW,21.9,27.6,0.00,Snow,Light Snow,300,2013-03-14 04:28:00
12:54 AM,21.0,16.0,81,30.06,8.0,WNW,19.6,28.8,0.00,,Overcast,300,2013-03-14 04:54:00
1:17 AM,21.2,15.8,80,29.97,4.0,West,18.4,31.1,0.00,,Overcast,280,2013-03-14 05:17:00
1:54 AM,21.0,14.0,74,30.06,9.0,West,20.7,27.6,0.00,,Overcast,280,2013-03-14 05:54:00
2:45 AM,21.2,15.8,80,29.97,1.8,West,17.3,26.5,0.00,Snow,Light Snow,280,2013-03-14 06:45:00
2:54 AM,19.9,16.0,85,30.06,1.8,West,17.3,32.2,0.00,Snow,Light Snow,270,2013-03-14 06:54:00
2:59 AM,21.2,15.8,80,29.97,3.0,West,18.4,25.3,0.00,Snow,Light Snow,280,2013-03-14 06:59:00
3:05 AM,21.2,15.8,80,29.97,1.8,WNW,17.3,24.2,0.00,Snow,Light Snow,290,2013-03-14 07:05:00
3:39 AM,21.2,15.8,80,29.97,1.8,West,17.3,26.5,0.00,Snow,Light Snow,280,2013-03-14 07:39:00
3:49 AM,19.4,17.6,93,29.97,0.5,West,17.3,27.6,0.00,Fog-Snow,Snow,280,2013-03-14 07:49:00
3:54 AM,19.9,17.1,89,30.06,0.8,West,15.0,26.5,0.00,Snow,Light Snow,280,2013-03-14 07:54:00
4:07 AM,19.4,17.6,93,29.97,3.0,West,16.1,24.2,0.00,Snow,Light Snow,280,2013-03-14 08:07:00
4:15 AM,19.4,15.8,86,29.96,5.0,West,18.4,26.5,0.00,Snow,Light Snow,280,2013-03-14 08:15:00
4:54 AM,19.9,15.1,81,30.06,3.0,West,17.3,29.9,0.00,Snow,Light Snow,280,2013-03-14 08:54:00
5:54 AM,19.9,15.1,81,30.08,4.0,West,17.3,26.5,0.00,Snow,Light Snow,280,2013-03-14 09:54:00
6:54 AM,19.9,15.1,81,30.09,3.0,West,16.1,28.8,0.00,Snow,Light Snow,270,2013-03-14 10:54:00
7:25 AM,19.4,14.0,80,30.00,2.5,West,19.6,34.5,0.00,Snow,Light Snow,280,2013-03-14 11:25:00
7:37 AM,19.4,14.0,80,30.00,3.0,West,19.6,26.5,0.00,Snow,Light Snow,270,2013-03-14 11:37:00
7:44 AM,19.4,14.0,80,30.01,2.0,West,18.4,28.8,0.00,Snow,Light Snow,270,2013-03-14 11:44:00
7:54 AM,19.0,14.0,81,30.12,2.5,West,18.4,27.6,0.00,Snow,Light Snow,270,2013-03-14 11:54:00
8:01 AM,19.4,14.0,80,30.02,4.0,West,20.7,-,0.00,Snow,Light Snow,280,2013-03-14 12:01:00
8:14 AM,19.4,14.0,80,30.02,2.5,West,16.1,29.9,0.00,Snow,Light Snow,270,2013-03-14 12:14:00
8:31 AM,19.4,14.0,80,30.03,1.2,West,17.3,29.9,0.00,Snow,Light Snow,270,2013-03-14 12:31:00
8:54 AM,19.9,14.0,78,30.14,1.0,West,16.1,29.9,0.00,Snow,Light Snow,280,2013-03-14 12:54:00
9:26 AM,19.4,15.8,86,30.04,0.8,West,17.3,24.2,0.00,Snow,Light Snow,280,2013-03-14 13:26:00
9:33 AM,19.4,15.8,86,30.04,0.8,West,17.3,24.2,0.00,Snow,Light Snow,280,2013-03-14 13:33:00
9:54 AM,19.0,15.1,85,30.15,1.0,West,13.8,24.2,0.00,Snow,Light Snow,280,2013-03-14 13:54:00
10:17 AM,19.4,14.0,80,30.05,3.0,West,16.1,21.9,0.00,Snow,Light Snow,260,2013-03-14 14:17:00
10:27 AM,19.4,14.0,80,30.05,5.0,West,9.2,-,0.00,Snow,Light Snow,270,2013-03-14 14:27:00
10:54 AM,19.9,14.0,78,30.15,3.0,West,12.7,23.0,0.00,Snow,Light Snow,270,2013-03-14 14:54:00
11:34 AM,19.4,14.0,80,30.04,2.5,West,17.3,25.3,0.00,Snow,Light Snow,280,2013-03-14 15:34:00
11:42 AM,21.2,14.0,74,30.04,5.0,West,11.5,23.0,0.00,Snow,Light Snow,280,2013-03-14 15:42:00
11:54 AM,21.0,12.9,71,30.15,3.0,West,15.0,26.5,0.00,Snow,Light Snow,280,2013-03-14 15:54:00
12:14 PM,21.2,12.2,68,30.04,4.0,WNW,19.6,28.8,0.00,Snow,Light Snow,290,2013-03-14 16:14:00
12:31 PM,21.2,12.2,68,30.04,8.0,West,12.7,24.2,0.00,Snow,Light Snow,280,2013-03-14 16:31:00
12:54 PM,21.9,12.9,68,30.14,6.0,West,18.4,25.3,0.00,Snow,Light Snow,260,2013-03-14 16:54:00
1:54 PM,25.0,12.9,60,30.13,10.0,West,19.6,28.8,0.00,,Overcast,280,2013-03-14 17:54:00
2:54 PM,25.0,12.0,58,30.11,10.0,West,18.4,27.6,0.00,,Overcast,280,2013-03-14 18:54:00
3:54 PM,27.0,12.9,56,30.09,7.0,West,20.7,33.4,0.00,,Overcast,280,2013-03-14 19:54:00
4:54 PM,28.9,12.0,49,30.08,10.0,West,21.9,29.9,0.00,,Mostly Cloudy,270,2013-03-14 20:54:00
5:54 PM,28.9,12.0,49,30.09,10.0,West,23.0,36.8,0.00,,Mostly Cloudy,280,2013-03-14 21:54:00
6:54 PM,28.0,12.0,51,30.10,10.0,West,17.3,27.6,N/A,,Partly Cloudy,280,2013-03-14 22:54:00
7:54 PM,27.0,12.9,56,30.11,10.0,West,11.5,-,N/A,,Clear,280,2013-03-14 23:54:00
8:54 PM,27.0,12.9,56,30.11,10.0,West,15.0,-,N/A,,Clear,280,2013-03-15 00:54:00
9:54 PM,26.1,12.9,58,30.12,10.0,WNW,20.7,27.6,N/A,,Clear,300,2013-03-15 01:54:00
10:54 PM,25.0,12.9,60,30.12,10.0,NW,20.7,-,N/A,,Clear,310,2013-03-15 02:54:00
11:54 PM,24.1,12.0,60,30.11,10.0,WNW,16.1,-,N/A,,Clear,300,2013-03-15 03:54:00